EXS22RB EGCC-LPFR

Flight info

Callsign EXS22RB
Flight time 2h 24m
Altitude 23000
Route ASMIM DCT NOKIN P17 BEPHE/N0463F400 DCT OSSEP DCT ELNIF DCT ZESPE DCT DAWLY DCT BHD DCT SALCO/N0458F390 DCT EBOMO DCT IBISU DCT BALDA DCT ABUPI DCT ALAGU
Aircraft A332/H-SDE3GHIJ2J3J5M1RVWXY/LB2D1

Departure

Time 2026-05-06 13:26
Airport Manchester Airport (EGCC)

Arrival

Time 2026-05-06 15:51
Airport Faro - Gago Coutinho International Airport (LPFR)
Time Latitude Longitude Altitude Speed Heading
2026-05-06 13:04 53.36760 -2.28764 259 ft 0 kts 315°
2026-05-06 13:16 53.36748 -2.28743 259 ft 4 kts 315°
2026-05-06 13:16 53.36729 -2.28711 259 ft 3 kts 315°
2026-05-06 13:16 53.36715 -2.28685 259 ft 4 kts 295°
2026-05-06 13:17 53.36712 -2.28648 259 ft 4 kts 233°
2026-05-06 13:17 53.36714 -2.28644 259 ft 4 kts 224°
2026-05-06 13:17 53.36694 -2.28675 259 ft 4 kts 224°
2026-05-06 13:17 53.36675 -2.28707 259 ft 4 kts 224°
2026-05-06 13:18 53.36656 -2.28739 259 ft 4 kts 224°
2026-05-06 13:18 53.36651 -2.28747 259 ft 5 kts 224°
2026-05-06 13:20 53.36647 -2.28753 259 ft 2 kts 224°
2026-05-06 13:20 53.36629 -2.28775 259 ft 6 kts 208°
2026-05-06 13:20 53.36571 -2.28742 259 ft 13 kts 137°
2026-05-06 13:21 53.36497 -2.28616 259 ft 16 kts 135°
2026-05-06 13:21 53.36408 -2.28495 259 ft 17 kts 159°
2026-05-06 13:21 53.36304 -2.28400 259 ft 18 kts 136°
2026-05-06 13:21 53.36214 -2.28248 259 ft 19 kts 135°
2026-05-06 13:22 53.36119 -2.28091 259 ft 20 kts 136°
2026-05-06 13:22 53.36013 -2.27935 259 ft 21 kts 138°
2026-05-06 13:22 53.35895 -2.27853 259 ft 19 kts 180°
2026-05-06 13:22 53.35748 -2.27873 251 ft 23 kts 185°
2026-05-06 13:23 53.35578 -2.27902 242 ft 23 kts 186°
2026-05-06 13:23 53.35488 -2.27919 243 ft 9 kts 187°
2026-05-06 13:23 53.35422 -2.27977 241 ft 13 kts 220°
2026-05-06 13:23 53.35352 -2.28088 240 ft 15 kts 224°
2026-05-06 13:24 53.35266 -2.28235 241 ft 21 kts 228°
2026-05-06 13:24 53.35162 -2.28445 234 ft 26 kts 230°
2026-05-06 13:24 53.35049 -2.28678 235 ft 26 kts 228°
2026-05-06 13:24 53.34921 -2.28905 229 ft 28 kts 226°
2026-05-06 13:25 53.34781 -2.29165 229 ft 31 kts 231°
2026-05-06 13:25 53.34675 -2.29321 220 ft 13 kts 200°
2026-05-06 13:25 53.34571 -2.29314 220 ft 17 kts 149°
2026-05-06 13:25 53.34582 -2.29140 223 ft 24 kts 50°
2026-05-06 13:26 53.34805 -2.28675 233 ft 81 kts 51°
2026-05-06 13:26 53.35287 -2.27678 243 ft 137 kts 51°
2026-05-06 13:26 53.35979 -2.26238 465 ft 171 kts 51°
2026-05-06 13:26 53.36730 -2.24658 1260 ft 173 kts 50°
2026-05-06 13:27 53.37503 -2.23063 1959 ft 185 kts 50°
2026-05-06 13:27 53.38463 -2.21441 2405 ft 208 kts 34°
2026-05-06 13:27 53.39902 -2.20630 2735 ft 236 kts
2026-05-06 13:27 53.41476 -2.21572 3327 ft 253 kts 322°
2026-05-06 13:28 53.42505 -2.24008 4143 ft 262 kts 295°
2026-05-06 13:28 53.43158 -2.26881 5015 ft 265 kts 291°
2026-05-06 13:28 53.43776 -2.29805 5920 ft 267 kts 291°
2026-05-06 13:28 53.44420 -2.32735 6801 ft 269 kts 293°
2026-05-06 13:29 53.45187 -2.35604 7684 ft 271 kts 297°
2026-05-06 13:29 53.46036 -2.38455 8549 ft 274 kts 298°
2026-05-06 13:29 53.46765 -2.41391 9398 ft 279 kts 285°
2026-05-06 13:29 53.46887 -2.44682 10225 ft 284 kts 265°
2026-05-06 13:30 53.46590 -2.48049 10706 ft 302 kts 261°
2026-05-06 13:30 53.46182 -2.51622 11064 ft 321 kts 259°
2026-05-06 13:30 53.45749 -2.55319 11610 ft 332 kts 260°
2026-05-06 13:30 53.45251 -2.59126 12359 ft 337 kts 254°
2026-05-06 13:31 53.44304 -2.62738 13146 ft 342 kts 239°
2026-05-06 13:31 53.42737 -2.65755 13900 ft 347 kts 220°
2026-05-06 13:31 53.40674 -2.67904 14635 ft 353 kts 208°
2026-05-06 13:31 53.38421 -2.69592 15351 ft 357 kts 204°
2026-05-06 13:32 53.36069 -2.71072 15868 ft 367 kts 201°
2026-05-06 13:32 53.33614 -2.72505 16158 ft 382 kts 201°
2026-05-06 13:32 53.31059 -2.73975 16639 ft 390 kts 201°
2026-05-06 13:32 53.28486 -2.75479 17219 ft 394 kts 201°
2026-05-06 13:33 53.25889 -2.77029 17835 ft 398 kts 202°
2026-05-06 13:33 53.23273 -2.78621 18435 ft 401 kts 202°
2026-05-06 13:33 53.20645 -2.80240 19017 ft 404 kts 202°
2026-05-06 13:33 53.18000 -2.81881 19567 ft 407 kts 202°
2026-05-06 13:34 53.15333 -2.83536 20100 ft 411 kts 202°
2026-05-06 13:34 53.12645 -2.85200 20648 ft 413 kts 202°
2026-05-06 13:34 53.10843 -2.86249 20983 ft 416 kts 199°
2026-05-06 13:34 53.07998 -2.87276 21471 ft 422 kts 188°
2026-05-06 13:35 53.05043 -2.87387 21958 ft 428 kts 179°
2026-05-06 13:35 53.02069 -2.86942 22436 ft 431 kts 175°
2026-05-06 13:35 52.99080 -2.86231 22889 ft 435 kts 173°
2026-05-06 13:35 52.96085 -2.85388 23355 ft 438 kts 172°
2026-05-06 13:36 52.93075 -2.84497 23794 ft 441 kts 172°
2026-05-06 13:36 52.90045 -2.83603 24240 ft 444 kts 172°
2026-05-06 13:36 52.86987 -2.82726 24670 ft 447 kts 172°
2026-05-06 13:36 52.83919 -2.81869 25121 ft 449 kts 173°
2026-05-06 13:37 52.80833 -2.81024 25553 ft 451 kts 173°
2026-05-06 13:37 52.77724 -2.80184 25969 ft 453 kts 173°
2026-05-06 13:37 52.74604 -2.79347 26376 ft 456 kts 173°
2026-05-06 13:37 52.71463 -2.78509 26781 ft 458 kts 173°
2026-05-06 13:38 52.68308 -2.77669 27166 ft 460 kts 173°
2026-05-06 13:38 52.65140 -2.76826 27553 ft 463 kts 173°
2026-05-06 13:38 52.61943 -2.76162 27934 ft 463 kts 178°
2026-05-06 13:38 52.58761 -2.76078 28289 ft 464 kts 183°
2026-05-06 13:39 52.55521 -2.76215 28656 ft 466 kts 184°
2026-05-06 13:39 52.52278 -2.76456 28993 ft 468 kts 185°
2026-05-06 13:39 52.49015 -2.76751 29347 ft 470 kts 185°
2026-05-06 13:39 52.45744 -2.77064 29674 ft 472 kts 185°
2026-05-06 13:40 52.42451 -2.77378 30022 ft 474 kts 185°
2026-05-06 13:40 52.39159 -2.77686 30429 ft 473 kts 185°
2026-05-06 13:40 52.35878 -2.77981 30893 ft 472 kts 185°
2026-05-06 13:40 52.32608 -2.78269 31365 ft 470 kts 185°
2026-05-06 13:41 52.29346 -2.78550 31807 ft 469 kts 185°
2026-05-06 13:41 52.26096 -2.78828 32213 ft 468 kts 185°
2026-05-06 13:41 52.22841 -2.79104 32599 ft 467 kts 185°
2026-05-06 13:41 52.19600 -2.79378 32980 ft 466 kts 185°
2026-05-06 13:42 52.16365 -2.79653 33373 ft 465 kts 185°
2026-05-06 13:42 52.13127 -2.79929 33743 ft 464 kts 185°
2026-05-06 13:42 52.09906 -2.80206 34101 ft 463 kts 185°
2026-05-06 13:42 52.06685 -2.80480 34432 ft 463 kts 185°
2026-05-06 13:43 52.03472 -2.80751 34763 ft 463 kts 185°
2026-05-06 13:43 52.00253 -2.81025 35082 ft 462 kts 185°
2026-05-06 13:43 51.97041 -2.81301 35346 ft 463 kts 185°
2026-05-06 13:43 51.93818 -2.81575 35562 ft 465 kts 185°
2026-05-06 13:44 51.90584 -2.81848 35835 ft 466 kts 185°
2026-05-06 13:44 51.87345 -2.82120 36113 ft 465 kts 185°
2026-05-06 13:44 51.84113 -2.82488 36380 ft 465 kts 187°
2026-05-06 13:44 51.80943 -2.83060 36620 ft 465 kts 189°
2026-05-06 13:45 51.77741 -2.83754 36901 ft 464 kts 190°
2026-05-06 13:45 51.71399 -2.85218 37629 ft 458 kts 190°
2026-05-06 13:45 51.68242 -2.85935 37893 ft 457 kts 189°
2026-05-06 13:46 51.65082 -2.86636 38101 ft 458 kts 189°
2026-05-06 13:46 51.61927 -2.87322 38304 ft 459 kts 189°
2026-05-06 13:46 51.58756 -2.88003 38497 ft 459 kts 189°
2026-05-06 13:46 51.55623 -2.88945 38691 ft 458 kts 196°
2026-05-06 13:47 51.52574 -2.90425 38870 ft 457 kts 200°
2026-05-06 13:47 51.49570 -2.92094 38988 ft 459 kts 201°
2026-05-06 13:47 51.43572 -2.95670 39016 ft 460 kts 202°
2026-05-06 13:48 51.37583 -2.99315 39013 ft 460 kts 202°
2026-05-06 13:48 51.31588 -3.02928 39013 ft 460 kts 202°
2026-05-06 13:49 51.25584 -3.06508 39007 ft 460 kts 202°
2026-05-06 13:49 51.19577 -3.10071 39026 ft 460 kts 202°
2026-05-06 13:50 51.13567 -3.13628 39022 ft 461 kts 201°
2026-05-06 13:50 51.07612 -3.17144 39039 ft 461 kts 201°
2026-05-06 13:51 51.04614 -3.18910 39218 ft 461 kts 201°
2026-05-06 13:51 51.01608 -3.20680 39421 ft 461 kts 201°
2026-05-06 13:51 50.98603 -3.22446 39614 ft 461 kts 201°
2026-05-06 13:51 50.95595 -3.24211 39786 ft 461 kts 201°
2026-05-06 13:52 50.92582 -3.25976 39945 ft 461 kts 201°
2026-05-06 13:52 50.89570 -3.27738 40094 ft 462 kts 201°
2026-05-06 13:52 50.86544 -3.29505 40249 ft 463 kts 201°
2026-05-06 13:52 50.83518 -3.31271 40379 ft 464 kts 201°
2026-05-06 13:53 50.80485 -3.33039 40542 ft 464 kts 201°
2026-05-06 13:53 50.77459 -3.34800 40696 ft 464 kts 201°
2026-05-06 13:53 50.74425 -3.36563 40841 ft 465 kts 201°
2026-05-06 13:53 50.71387 -3.38326 40978 ft 465 kts 201°
2026-05-06 13:54 50.65283 -3.41861 41017 ft 469 kts 201°
2026-05-06 13:54 50.59144 -3.45326 41013 ft 469 kts 197°
2026-05-06 13:55 50.52724 -3.47224 41016 ft 470 kts 188°
2026-05-06 13:55 50.46217 -3.48404 41019 ft 471 kts 187°
2026-05-06 13:56 50.39741 -3.49417 41018 ft 471 kts 186°
2026-05-06 13:56 50.33194 -3.49924 41013 ft 472 kts 183°
2026-05-06 13:57 50.26624 -3.50184 41018 ft 472 kts 183°
2026-05-06 13:57 50.20062 -3.50470 41017 ft 472 kts 183°
2026-05-06 13:58 50.13507 -3.50806 41016 ft 472 kts 183°
2026-05-06 13:58 50.06942 -3.51164 41009 ft 472 kts 183°
2026-05-06 13:59 50.00384 -3.51523 41011 ft 472 kts 183°
2026-05-06 13:59 49.93819 -3.51879 41008 ft 472 kts 183°
2026-05-06 14:00 49.87252 -3.52233 41008 ft 472 kts 183°
2026-05-06 14:00 49.80684 -3.52586 41008 ft 472 kts 183°
2026-05-06 14:01 49.74138 -3.53197 41010 ft 471 kts 190°
2026-05-06 14:01 49.67763 -3.55417 41006 ft 470 kts 195°
2026-05-06 14:02 49.61450 -3.58066 41008 ft 470 kts 197°
2026-05-06 14:02 49.55194 -3.60766 41003 ft 470 kts 197°
2026-05-06 14:03 49.48895 -3.63452 41001 ft 470 kts 197°
2026-05-06 14:03 49.42600 -3.66105 40996 ft 470 kts 197°
2026-05-06 14:04 49.36294 -3.68746 40997 ft 470 kts 196°
2026-05-06 14:04 49.29977 -3.71384 40997 ft 470 kts 196°
2026-05-06 14:05 49.23675 -3.74011 40996 ft 470 kts 196°
2026-05-06 14:05 49.17362 -3.76635 40991 ft 470 kts 196°
2026-05-06 14:06 49.11046 -3.79255 40990 ft 470 kts 196°
2026-05-06 14:06 49.04727 -3.81868 40990 ft 471 kts 196°
2026-05-06 14:07 48.98408 -3.84474 40990 ft 471 kts 196°
2026-05-06 14:07 48.92079 -3.87078 40991 ft 471 kts 196°
2026-05-06 14:08 48.85784 -3.89661 40989 ft 471 kts 196°
2026-05-06 14:08 48.79448 -3.92254 40990 ft 471 kts 196°
2026-05-06 14:09 48.73115 -3.94839 40988 ft 472 kts 196°
2026-05-06 14:09 48.66774 -3.97420 40989 ft 472 kts 196°
2026-05-06 14:10 48.60453 -3.99987 40989 ft 472 kts 196°
2026-05-06 14:10 48.54112 -4.02554 40990 ft 472 kts 196°
2026-05-06 14:11 48.47771 -4.05116 40989 ft 472 kts 196°
2026-05-06 14:11 48.41420 -4.07675 40990 ft 472 kts 196°
2026-05-06 14:12 48.35076 -4.10224 40990 ft 472 kts 196°
2026-05-06 14:12 48.28726 -4.12769 40989 ft 472 kts 196°
2026-05-06 14:13 48.22369 -4.15311 40984 ft 472 kts 196°
2026-05-06 14:13 48.16021 -4.17842 40979 ft 472 kts 196°
2026-05-06 14:14 48.09714 -4.20352 40980 ft 472 kts 196°
2026-05-06 14:14 48.03355 -4.22875 40970 ft 472 kts 196°
2026-05-06 14:15 47.97004 -4.25388 40971 ft 472 kts 196°
2026-05-06 14:15 47.90651 -4.27896 40971 ft 472 kts 196°
2026-05-06 14:16 47.84291 -4.30399 40971 ft 472 kts 196°
2026-05-06 14:16 47.77962 -4.33049 40972 ft 472 kts 198°
2026-05-06 14:17 47.71681 -4.35916 40970 ft 472 kts 198°
2026-05-06 14:17 47.65404 -4.38798 40971 ft 472 kts 198°
2026-05-06 14:18 47.59123 -4.41649 40971 ft 472 kts 198°
2026-05-06 14:18 47.52854 -4.44470 40971 ft 472 kts 198°
2026-05-06 14:19 47.46578 -4.47282 40972 ft 472 kts 198°
2026-05-06 14:19 47.40288 -4.50093 40972 ft 472 kts 198°
2026-05-06 14:20 47.34039 -4.52880 40971 ft 472 kts 198°
2026-05-06 14:20 47.27746 -4.55681 40970 ft 472 kts 198°
2026-05-06 14:21 47.21457 -4.58472 40972 ft 472 kts 198°
2026-05-06 14:21 47.15157 -4.61262 40972 ft 472 kts 198°
2026-05-06 14:22 47.09928 -4.63571 40970 ft 472 kts 198°
2026-05-06 14:22 47.03592 -4.66139 40973 ft 473 kts 196°
2026-05-06 14:23 46.97215 -4.68555 40970 ft 473 kts 195°
2026-05-06 14:23 46.90846 -4.70960 40970 ft 473 kts 196°
2026-05-06 14:24 46.84469 -4.73386 40970 ft 473 kts 196°
2026-05-06 14:24 46.78100 -4.75816 40972 ft 473 kts 196°
2026-05-06 14:25 46.71729 -4.78244 40986 ft 473 kts 196°
2026-05-06 14:25 46.65363 -4.80662 40990 ft 473 kts 196°
2026-05-06 14:26 46.58990 -4.83077 40989 ft 473 kts 196°
2026-05-06 14:26 46.52615 -4.85486 40990 ft 473 kts 196°
2026-05-06 14:27 46.46239 -4.87890 40989 ft 473 kts 196°
2026-05-06 14:27 46.39903 -4.90273 40996 ft 473 kts 196°
2026-05-06 14:28 46.33533 -4.92664 40999 ft 473 kts 196°
2026-05-06 14:28 46.27162 -4.95048 40999 ft 473 kts 196°
2026-05-06 14:29 46.20783 -4.97430 40999 ft 473 kts 196°
2026-05-06 14:29 46.14403 -4.99807 40999 ft 473 kts 196°
2026-05-06 14:30 46.08029 -5.02176 41012 ft 473 kts 196°
2026-05-06 14:30 46.01648 -5.04541 41006 ft 473 kts 196°
2026-05-06 14:31 45.95267 -5.06901 41007 ft 473 kts 196°
2026-05-06 14:31 45.88888 -5.09255 41009 ft 473 kts 196°
2026-05-06 14:32 45.82515 -5.11601 41013 ft 473 kts 196°
2026-05-06 14:32 45.76137 -5.13943 41018 ft 473 kts 196°
2026-05-06 14:33 45.69801 -5.16264 41019 ft 473 kts 196°
2026-05-06 14:33 45.63434 -5.18592 41025 ft 473 kts 196°
2026-05-06 14:34 45.57054 -5.20918 41026 ft 473 kts 196°
2026-05-06 14:34 45.50671 -5.23240 41024 ft 473 kts 196°
2026-05-06 14:35 45.44289 -5.25556 41024 ft 473 kts 196°
2026-05-06 14:35 45.37907 -5.27866 41021 ft 473 kts 196°
2026-05-06 14:36 45.31537 -5.30167 41030 ft 473 kts 196°
2026-05-06 14:36 45.25155 -5.32467 41026 ft 473 kts 196°
2026-05-06 14:37 45.18782 -5.34759 41036 ft 473 kts 196°
2026-05-06 14:37 45.12407 -5.37046 41038 ft 473 kts 196°
2026-05-06 14:38 45.06026 -5.39330 41039 ft 472 kts 196°
2026-05-06 14:38 44.99653 -5.41606 41037 ft 472 kts 196°
2026-05-06 14:39 44.93277 -5.43878 41027 ft 472 kts 196°
2026-05-06 14:39 44.86904 -5.46143 41024 ft 472 kts 196°
2026-05-06 14:40 44.80531 -5.48404 41027 ft 472 kts 196°
2026-05-06 14:40 44.74156 -5.50660 41029 ft 472 kts 196°
2026-05-06 14:41 44.67828 -5.52894 41029 ft 472 kts 196°
2026-05-06 14:41 44.61490 -5.55270 41025 ft 470 kts 201°
2026-05-06 14:42 44.55429 -5.58696 41030 ft 469 kts 205°
2026-05-06 14:42 44.49457 -5.62368 41029 ft 469 kts 206°
2026-05-06 14:43 44.43503 -5.66079 41025 ft 469 kts 206°
2026-05-06 14:43 44.37534 -5.69773 41010 ft 469 kts 206°
2026-05-06 14:44 44.31560 -5.73446 41006 ft 469 kts 206°
2026-05-06 14:45 44.22597 -5.78931 41009 ft 468 kts 206°
2026-05-06 14:45 44.16708 -5.82526 41009 ft 468 kts 206°
2026-05-06 14:46 44.10740 -5.86160 41012 ft 468 kts 206°
2026-05-06 14:46 44.04769 -5.89789 41014 ft 468 kts 206°
2026-05-06 14:47 43.98792 -5.93413 41016 ft 468 kts 206°
2026-05-06 14:47 43.92813 -5.97031 41030 ft 468 kts 206°
2026-05-06 14:48 43.86833 -6.00641 41012 ft 468 kts 205°
2026-05-06 14:48 43.80855 -6.04243 41013 ft 468 kts 205°
2026-05-06 14:49 43.74875 -6.07837 41025 ft 468 kts 205°
2026-05-06 14:49 43.68897 -6.11423 41013 ft 468 kts 205°
2026-05-06 14:50 43.62961 -6.14976 41028 ft 468 kts 205°
2026-05-06 14:50 43.56979 -6.18548 41013 ft 468 kts 205°
2026-05-06 14:51 43.51002 -6.22109 41012 ft 468 kts 205°
2026-05-06 14:51 43.45021 -6.25666 41015 ft 468 kts 205°
2026-05-06 14:52 43.39043 -6.29212 41031 ft 468 kts 205°
2026-05-06 14:52 43.33064 -6.32752 41028 ft 467 kts 205°
2026-05-06 14:53 43.27095 -6.36279 41013 ft 467 kts 205°
2026-05-06 14:53 43.21123 -6.39799 41020 ft 467 kts 205°
2026-05-06 14:54 43.15169 -6.43301 41013 ft 467 kts 205°
2026-05-06 14:54 43.09196 -6.46807 41007 ft 467 kts 205°
2026-05-06 14:55 43.03271 -6.50277 41009 ft 466 kts 205°
2026-05-06 14:55 42.97306 -6.53762 41006 ft 466 kts 205°
2026-05-06 14:56 42.91350 -6.57237 41005 ft 466 kts 205°
2026-05-06 14:56 42.85392 -6.60705 41001 ft 465 kts 205°
2026-05-06 14:57 42.79430 -6.64168 41001 ft 465 kts 205°
2026-05-06 14:57 42.73477 -6.67619 40999 ft 465 kts 205°
2026-05-06 14:58 42.67528 -6.71060 41000 ft 465 kts 205°
2026-05-06 14:58 42.61566 -6.74502 40997 ft 465 kts 205°
2026-05-06 14:59 42.55616 -6.77929 40999 ft 465 kts 205°
2026-05-06 14:59 42.49658 -6.81353 40997 ft 464 kts 205°
2026-05-06 15:00 42.43704 -6.84769 40996 ft 464 kts 205°
2026-05-06 15:00 42.37758 -6.88163 40998 ft 465 kts 204°
2026-05-06 15:01 42.31494 -6.90422 40999 ft 469 kts 192°
2026-05-06 15:01 42.25018 -6.91662 41001 ft 470 kts 190°
2026-05-06 15:02 42.18571 -6.92813 40996 ft 470 kts 190°
2026-05-06 15:02 42.12088 -6.93967 40991 ft 470 kts 190°
2026-05-06 15:03 42.05611 -6.95117 40989 ft 470 kts 190°
2026-05-06 15:03 41.99125 -6.96267 40989 ft 470 kts 190°
2026-05-06 15:04 41.92622 -6.97417 40987 ft 469 kts 191°
2026-05-06 15:04 41.86151 -6.98559 40989 ft 469 kts 191°
2026-05-06 15:05 41.79683 -6.99699 40991 ft 469 kts 191°
2026-05-06 15:05 41.73213 -7.00836 40990 ft 469 kts 191°
2026-05-06 15:06 41.66743 -7.01972 40990 ft 469 kts 191°
2026-05-06 15:06 41.60278 -7.03104 40989 ft 469 kts 191°
2026-05-06 15:07 41.53813 -7.04233 40990 ft 468 kts 191°
2026-05-06 15:07 41.47361 -7.05358 40990 ft 468 kts 191°
2026-05-06 15:08 41.40895 -7.06484 40991 ft 468 kts 191°
2026-05-06 15:08 41.34434 -7.07606 40989 ft 468 kts 191°
2026-05-06 15:09 41.29053 -7.08539 40990 ft 468 kts 191°
2026-05-06 15:09 41.21545 -7.09838 40990 ft 467 kts 191°
2026-05-06 15:10 41.15117 -7.10948 40983 ft 466 kts 191°
2026-05-06 15:10 41.09779 -7.11868 40979 ft 465 kts 191°
2026-05-06 15:11 41.03369 -7.12971 40979 ft 465 kts 191°
2026-05-06 15:11 40.96958 -7.14072 40981 ft 465 kts 191°
2026-05-06 15:12 40.90536 -7.15173 40980 ft 464 kts 191°
2026-05-06 15:12 40.84139 -7.16266 40972 ft 464 kts 191°
2026-05-06 15:13 40.77732 -7.17360 40972 ft 464 kts 191°
2026-05-06 15:13 40.71319 -7.18452 40973 ft 464 kts 191°
2026-05-06 15:14 40.64916 -7.19541 40973 ft 464 kts 191°
2026-05-06 15:14 40.58510 -7.20628 40970 ft 464 kts 191°
2026-05-06 15:15 40.52116 -7.21711 40970 ft 464 kts 191°
2026-05-06 15:15 40.45698 -7.22796 40972 ft 463 kts 191°
2026-05-06 15:16 40.39307 -7.23874 40973 ft 463 kts 191°
2026-05-06 15:16 40.32951 -7.24945 40972 ft 463 kts 191°
2026-05-06 15:17 40.26515 -7.26027 40971 ft 463 kts 191°
2026-05-06 15:17 40.20120 -7.27099 40972 ft 463 kts 191°
2026-05-06 15:18 40.13718 -7.28172 40971 ft 463 kts 191°
2026-05-06 15:18 40.07364 -7.29234 40963 ft 463 kts 191°
2026-05-06 15:19 40.00964 -7.30301 40961 ft 463 kts 191°
2026-05-06 15:19 39.94577 -7.31365 40962 ft 462 kts 191°
2026-05-06 15:20 39.88203 -7.32424 40961 ft 461 kts 191°
2026-05-06 15:20 39.81830 -7.33481 40962 ft 461 kts 191°
2026-05-06 15:21 39.75460 -7.34536 40946 ft 461 kts 191°
2026-05-06 15:21 39.69134 -7.35582 40942 ft 461 kts 191°
2026-05-06 15:22 39.62766 -7.36632 40943 ft 461 kts 191°
2026-05-06 15:22 39.56395 -7.37681 40943 ft 461 kts 191°
2026-05-06 15:23 39.50036 -7.38726 40945 ft 461 kts 191°
2026-05-06 15:23 39.43682 -7.39769 40934 ft 461 kts 191°
2026-05-06 15:24 39.37321 -7.40810 40933 ft 460 kts 191°
2026-05-06 15:24 39.30967 -7.41848 40934 ft 460 kts 191°
2026-05-06 15:25 39.24619 -7.42884 40933 ft 460 kts 191°
2026-05-06 15:25 39.18273 -7.43918 40918 ft 460 kts 191°
2026-05-06 15:25 39.15107 -7.44433 40690 ft 459 kts 191°
2026-05-06 15:26 39.11938 -7.44947 40441 ft 457 kts 191°
2026-05-06 15:26 39.08785 -7.45458 40200 ft 456 kts 191°
2026-05-06 15:26 39.05645 -7.45967 39945 ft 455 kts 191°
2026-05-06 15:26 39.02509 -7.46476 39697 ft 454 kts 191°
2026-05-06 15:27 38.99371 -7.46984 39460 ft 453 kts 191°
2026-05-06 15:27 38.96261 -7.47487 39205 ft 452 kts 191°
2026-05-06 15:27 38.93136 -7.47992 38954 ft 451 kts 191°
2026-05-06 15:27 38.90026 -7.48493 38705 ft 450 kts 191°
2026-05-06 15:28 38.86931 -7.48992 38266 ft 447 kts 191°
2026-05-06 15:28 38.83844 -7.49490 37674 ft 447 kts 191°
2026-05-06 15:28 38.80754 -7.49988 37058 ft 448 kts 191°
2026-05-06 15:28 38.77696 -7.50482 36433 ft 448 kts 191°
2026-05-06 15:29 38.74600 -7.50980 35784 ft 449 kts 191°
2026-05-06 15:29 38.71497 -7.51478 35046 ft 451 kts 191°
2026-05-06 15:29 38.68380 -7.51978 34293 ft 453 kts 191°
2026-05-06 15:29 38.65240 -7.52481 33534 ft 454 kts 191°
2026-05-06 15:30 38.62096 -7.52987 32716 ft 456 kts 191°
2026-05-06 15:30 38.58949 -7.53491 31897 ft 458 kts 191°
2026-05-06 15:30 38.55780 -7.53996 31053 ft 459 kts 191°
2026-05-06 15:30 38.52605 -7.54504 30165 ft 461 kts 191°
2026-05-06 15:31 38.49422 -7.55011 29371 ft 460 kts 190°
2026-05-06 15:31 38.46261 -7.55513 28780 ft 454 kts 190°
2026-05-06 15:31 38.43143 -7.56008 28183 ft 449 kts 190°
2026-05-06 15:32 38.37003 -7.56984 26972 ft 440 kts 190°
2026-05-06 15:32 38.33984 -7.57464 26371 ft 435 kts 190°
2026-05-06 15:32 38.30989 -7.57939 25780 ft 431 kts 190°
2026-05-06 15:32 38.28029 -7.58409 25191 ft 426 kts 190°
2026-05-06 15:33 38.25141 -7.58868 24613 ft 423 kts 190°
2026-05-06 15:33 38.22233 -7.59330 24026 ft 419 kts 190°
2026-05-06 15:33 38.19356 -7.59785 23447 ft 416 kts 190°
2026-05-06 15:33 38.16492 -7.60239 22852 ft 412 kts 190°
2026-05-06 15:34 38.13658 -7.60686 22262 ft 409 kts 190°
2026-05-06 15:34 38.10836 -7.61132 21677 ft 406 kts 189°
2026-05-06 15:34 38.08022 -7.61423 21048 ft 405 kts 185°
2026-05-06 15:34 38.05207 -7.61470 20453 ft 403 kts 183°
2026-05-06 15:35 38.02412 -7.61468 19908 ft 399 kts 182°
2026-05-06 15:35 37.99646 -7.61460 19359 ft 396 kts 182°
2026-05-06 15:35 37.96938 -7.61456 18837 ft 391 kts 182°
2026-05-06 15:35 37.94229 -7.61452 18281 ft 388 kts 182°
2026-05-06 15:36 37.91539 -7.61453 17757 ft 384 kts 182°
2026-05-06 15:36 37.88870 -7.61454 17227 ft 381 kts 182°
2026-05-06 15:36 37.86231 -7.61455 16710 ft 378 kts 182°
2026-05-06 15:36 37.83610 -7.61456 16196 ft 375 kts 182°
2026-05-06 15:37 37.81015 -7.61457 15687 ft 371 kts 182°
2026-05-06 15:37 37.78443 -7.61457 15172 ft 368 kts 182°
2026-05-06 15:37 37.75893 -7.61458 14670 ft 364 kts 181°
2026-05-06 15:37 37.73367 -7.61459 14159 ft 361 kts 181°
2026-05-06 15:38 37.70859 -7.61461 13653 ft 358 kts 181°
2026-05-06 15:38 37.68379 -7.61463 13154 ft 355 kts 181°
2026-05-06 15:38 37.65917 -7.61464 12659 ft 351 kts 181°
2026-05-06 15:38 37.63486 -7.61466 12160 ft 348 kts 181°
2026-05-06 15:39 37.61071 -7.61466 11657 ft 345 kts 181°
2026-05-06 15:39 37.58681 -7.61467 11169 ft 344 kts 181°
2026-05-06 15:39 37.56237 -7.61469 10719 ft 356 kts 180°
2026-05-06 15:39 37.53765 -7.61471 10611 ft 361 kts 180°
2026-05-06 15:40 37.51252 -7.61472 10504 ft 361 kts 180°
2026-05-06 15:40 37.48746 -7.61473 10351 ft 361 kts 180°
2026-05-06 15:40 37.46200 -7.61473 10191 ft 360 kts 180°
2026-05-06 15:40 37.43726 -7.61473 10036 ft 360 kts 180°
2026-05-06 15:41 37.41220 -7.61473 9809 ft 360 kts 180°
2026-05-06 15:41 37.38718 -7.61474 9295 ft 359 kts 180°
2026-05-06 15:41 37.36227 -7.61474 8887 ft 357 kts 180°
2026-05-06 15:41 37.33742 -7.61474 8505 ft 356 kts 180°
2026-05-06 15:42 37.31267 -7.61473 8106 ft 355 kts 180°
2026-05-06 15:42 37.28806 -7.61469 7708 ft 353 kts 180°
2026-05-06 15:42 37.26360 -7.61469 7313 ft 350 kts 180°
2026-05-06 15:42 37.23925 -7.61471 6925 ft 348 kts 180°
2026-05-06 15:43 37.21514 -7.61474 6517 ft 346 kts 180°
2026-05-06 15:43 37.19128 -7.61474 6126 ft 343 kts 180°
2026-05-06 15:43 37.16730 -7.61476 5724 ft 342 kts 180°
2026-05-06 15:43 37.14355 -7.61482 5335 ft 341 kts 180°
2026-05-06 15:44 37.11991 -7.61483 4933 ft 339 kts 180°
2026-05-06 15:44 37.09641 -7.61491 4518 ft 337 kts 182°
2026-05-06 15:44 37.07356 -7.62000 4208 ft 333 kts 200°
2026-05-06 15:44 37.05254 -7.63064 4017 ft 312 kts 205°
2026-05-06 15:45 37.03383 -7.64112 3988 ft 278 kts 205°
2026-05-06 15:45 37.01675 -7.65073 3991 ft 259 kts 205°
2026-05-06 15:45 37.00100 -7.65960 4000 ft 240 kts 207°
2026-05-06 15:45 36.98787 -7.67136 4005 ft 231 kts 234°
2026-05-06 15:46 36.98145 -7.68952 4003 ft 230 kts 257°
2026-05-06 15:46 36.97916 -7.70935 3944 ft 231 kts 270°
2026-05-06 15:46 36.98076 -7.72924 3711 ft 230 kts 280°
2026-05-06 15:46 36.98376 -7.74881 3386 ft 229 kts 280°
2026-05-06 15:47 36.98648 -7.76841 3046 ft 228 kts 279°
2026-05-06 15:47 36.98916 -7.78782 2729 ft 225 kts 280°
2026-05-06 15:47 36.99184 -7.80664 2426 ft 214 kts 280°
2026-05-06 15:47 36.99435 -7.82440 2157 ft 201 kts 279°
2026-05-06 15:48 36.99674 -7.84125 1897 ft 191 kts 279°
2026-05-06 15:48 36.99893 -7.85670 1653 ft 176 kts 279°
2026-05-06 15:48 37.00103 -7.87158 1424 ft 173 kts 279°
2026-05-06 15:48 37.00312 -7.88625 1196 ft 168 kts 279°
2026-05-06 15:49 37.00507 -7.89997 987 ft 152 kts 278°
2026-05-06 15:49 37.00680 -7.91233 789 ft 137 kts 281°
2026-05-06 15:49 37.00840 -7.92347 618 ft 124 kts 279°
2026-05-06 15:49 37.00994 -7.93381 427 ft 119 kts 279°
2026-05-06 15:50 37.01141 -7.94404 271 ft 120 kts 279°
2026-05-06 15:50 37.01282 -7.95442 104 ft 121 kts 279°
2026-05-06 15:50 37.01426 -7.96460 27 ft 110 kts 280°
2026-05-06 15:50 37.01525 -7.97165 24 ft 59 kts 280°
2026-05-06 15:51 37.01587 -7.97605 23 ft 45 kts 280°
2026-05-06 15:51 37.01632 -7.97923 25 ft 30 kts 280°
2026-05-06 15:51 37.01713 -7.98124 27 ft 25 kts 307°
2026-05-06 15:51 37.01800 -7.98224 25 ft 12 kts 355°
2026-05-06 15:52 37.01846 -7.98151 24 ft 13 kts 88°
2026-05-06 15:52 37.01833 -7.98033 24 ft 15 kts 99°
2026-05-06 15:52 37.01813 -7.97895 24 ft 18 kts 101°
2026-05-06 15:52 37.01790 -7.97735 25 ft 20 kts 99°
2026-05-06 15:53 37.01766 -7.97564 24 ft 20 kts 101°
2026-05-06 15:53 37.01741 -7.97384 26 ft 22 kts 100°
2026-05-06 15:53 37.01713 -7.97190 24 ft 24 kts 100°
2026-05-06 15:53 37.01685 -7.97000 24 ft 16 kts 100°
2026-05-06 15:54 37.01691 -7.96918 24 ft 7 kts 38°
2026-05-06 15:54 37.01751 -7.96899 28 ft 10 kts 10°
2026-05-06 15:54 37.01816 -7.96860 27 ft 11 kts 60°
2026-05-06 15:54 37.01820 -7.96766 24 ft 9 kts 101°
2026-05-06 15:55 37.01817 -7.96724 24 ft 2 kts 76°
2026-05-06 15:55 37.01835 -7.96712 25 ft 6 kts 18°
2026-05-06 15:55 37.01876 -7.96701 24 ft 3 kts 11°
2026-05-06 15:55 37.01888 -7.96699 24 ft 0 kts
2026-05-06 15:56 37.01895 -7.96698 24 ft 0 kts